#timestamp,LO_Frequency,Hit,StdDev 
1514358015.5,286046998.7,N
1514358035.4,286047000.4,N
1514358055.2,286046998.9,N
1514358075.0,286046998.2,N
1514358075.9,286046998.2,N
1514358095.8,286046998.7,N
1514358115.6,286046998.9,N
1514358135.5,286046999.1,N
1514358155.3,286046999.6,N
1514358175.1,286046999.4,N
1514358195.9,286046997.4,N
1514358215.7,286046998.7,N
1514358235.5,286046998.9,N
1514358255.4,286046998.8,N
1514358275.2,286046999.0,N
1514358295.1,286046998.4,N
1514358296.0,286046998.4,N
1514358315.8,286046998.8,N
1514358335.6,286046999.6,N
1514358355.5,286046998.4,N
1514358375.3,286046999.4,N
1514358395.1,286046998.7,N
1514358415.9,286046999.5,N
1514358435.7,286046998.4,N
1514358455.6,286047000.7,N
1514358475.4,286047000.7,N
1514358495.2,286047000.1,N
1514358515.1,286047001.1,N
1514358516.0,286047001.1,N
1514358535.8,286047000.4,N
1514358555.7,286047000.3,N
1514358575.5,286047001.0,N
1514358595.3,286046998.1,N
1514358615.2,286047001.1,N
1514358635.9,286046998.8,N
1514358655.7,286046998.6,N
1514358705.6,286046997.2,E
1514358715.5,286046998.1,N
1514358735.4,286047002.3,P
1514358755.2,286047002.1,N
1514358775.0,286047004.0,N
1514358775.9,286047004.0,N
1514358795.8,286047004.4,N
1514358815.6,286047003.6,N
1514358835.5,286047002.9,N
1514358855.3,286047003.1,N
1514358875.1,286047003.5,N
1514358895.9,286047003.6,N
1514358915.7,286047004.0,N
1514358935.5,286047003.3,N
1514358955.4,286047003.6,N
1514358975.2,286047002.9,N
1514358995.1,286047003.0,N
1514358996.0,286047003.0,N
1514359015.8,286047005.8,Y
1514359035.6,286047001.5,P
1514359055.5,286047002.7,P
1514359075.3,286047002.7,P
1514359095.2,286047002.2,Y
1514359115.9,286046999.1,P
1514359135.7,286046996.9,N
1514359155.6,286046997.2,N
1514359175.4,286046999.5,N
1514359195.2,286046996.9,N
1514359215.1,286046999.4,N
1514359216.0,286046999.4,N
1514359235.8,286046999.3,N
1514359255.7,286046999.6,N
1514359275.5,286046998.5,N
1514359295.3,286046997.1,N
1514359315.2,286046999.2,N
1514359335.0,286046999.0,N
1514359335.9,286046999.0,N
1514359355.7,286046999.4,N
1514359375.0,286046996.9,N
1514359375.9,286046996.9,N
1514359395.8,286046997.2,N
1514359415.6,286046995.0,Y
1514359435.4,286046998.9,P
1514359455.3,286046999.4,P
1514359475.1,286046998.9,P
1514359495.9,286047000.8,N
1514359515.7,286047001.1,N
1514359535.5,286046998.2,N
1514359555.4,286047001.1,N
1514359575.2,286046998.7,N
1514359595.0,286047000.9,N
1514359595.9,286047000.9,N
1514359615.8,286047000.8,N
1514359635.6,286046998.4,N
1514359655.5,286047000.6,N
1514359675.3,286047000.4,N
1514359695.1,286047002.0,N
1514359715.9,286047002.8,N
1514359735.7,286047002.2,N
1514359755.6,286047001.3,N
1514359775.4,286047001.7,N
1514359795.2,286047002.0,N
1514359815.1,286047001.9,N
1514359816.0,286047001.9,N
1514359835.8,286047002.3,N
1514359855.6,286047000.7,N
1514359875.5,286046998.7,N
1514359895.3,286047011.9,Y
1514359915.2,286047001.1,P
1514359935.9,286047001.0,P
1514359955.7,286047000.9,P
1514359975.6,286046998.1,Y
1514359995.4,286046996.9,P
1514360015.3,286046996.8,N
1514360035.1,286046997.6,N
1514360036.0,286046997.6,N
1514360055.8,286046997.8,N
1514360075.7,286046999.3,N
1514360095.5,286047000.5,N
1514360115.3,286046998.2,N
1514360135.2,286046998.8,N
1514360155.0,286047001.1,N
1514360155.9,286047001.1,N
1514360175.8,286046998.2,N
1514360195.6,286046999.6,N
1514360215.4,286046999.6,N
1514360235.3,286046998.7,N
1514360255.1,286046998.4,N
1514360275.8,286046998.9,N
1514360295.7,286046997.2,N
1514360315.5,286046999.0,N
1514360335.4,286046999.3,N
1514360355.2,286046999.0,N
1514360375.0,286046996.6,N
1514360375.9,286046996.6,N
1514360395.8,286046997.0,N
1514360415.6,286046997.1,N
1514360435.5,286046997.8,N
1514360455.3,286046998.0,N
1514360475.1,286046997.4,N
1514360495.9,286046996.7,N
1514360515.7,286046997.3,N
1514360535.5,286046997.6,N
1514360555.4,286046997.9,N
1514360575.2,286046999.6,N
1514360595.1,286046998.9,N
1514360596.0,286046998.9,N
1514360615.8,286046998.2,N
1514360635.6,286047000.8,N
1514360655.5,286047001.1,N
1514360675.3,286046998.1,N
1514360695.2,286046999.1,N
1514360715.9,286046999.3,N
1514360735.7,286047001.2,N
1514360755.6,286046998.3,N
1514360775.4,286046997.0,N
1514360795.3,286046996.8,N
1514360815.1,286046997.1,N
1514360816.0,286046997.1,N
1514360835.8,286046999.2,N
1514360855.7,286046998.8,N
1514360875.5,286046996.7,N
1514360895.3,286046997.2,N
1514360915.2,286046997.0,N
1514360935.0,286046999.5,N
1514360936.0,286046999.5,N
1514360955.8,286046999.4,N
1514360975.6,286046999.0,N
1514360995.5,286046997.0,N
1514361015.3,286046994.9,Y
1514361035.1,286046998.9,P
1514361055.9,286046999.0,P
1514361075.7,286047001.2,P
1514361095.6,286047001.1,N
1514361115.4,286047002.5,N
1514361135.2,286047002.6,N
1514361155.1,286046999.7,N
1514361156.0,286046999.7,N
1514361175.8,286047001.2,N
1514361195.7,286046998.6,N
1514361215.5,286047001.1,N
1514361235.3,286047000.9,N
1514361255.2,286047000.7,N
1514361275.9,286047000.2,N
1514361295.7,286047002.6,N
1514361315.6,286047001.2,N
1514361335.4,286047001.0,N
1514361355.3,286047000.1,N
1514361375.1,286047000.0,N
1514361376.0,286047000.0,N
1514361395.8,286047000.8,N
1514361415.7,286047000.4,N
1514361435.5,286047000.5,N
1514361455.3,286047000.5,N
1514361475.2,286047000.0,N
1514361495.0,286047000.6,N
1514361495.9,286047000.6,N
1514361515.8,286047000.6,N
1514361535.6,286047001.2,N
1514361555.4,286047001.2,N
1514361575.3,286046998.1,N
1514361595.1,286046998.5,N
